| time (UTC) | temp F | wind direction | speed knots | gust knots | rain 1hr in | rain 24hr in | rain mn in | humidity % | barometer mb |
| 20260502151733 | 58 | 281 | 5.2 | 9.6 | 0.00 | 0.00 | 0.00 | 28 | 1015.3 |
| 20260502151230 | 58 | 332 | 7.0 | 7.8 | 0.00 | 0.00 | 0.00 | 28 | 1015.6 |
| 20260502150727 | 57 | 255 | 7.8 | 9.6 | 0.00 | 0.00 | 0.00 | 29 | 1015.9 |
| 20260502150224 | 56 | 266 | 7.8 | 11.3 | 0.00 | 0.00 | 0.00 | 30 | 1015.5 |
| 20260502130613 | 39 | 291 | 7.8 | 11.3 | 0.00 | 0.00 | 0.00 | 57 | 1015.5 |
| 20260502130110 | 38 | 299 | 8.7 | 9.6 | 0.00 | 0.00 | 0.00 | 58 | 1015.5 |
| 20260502123550 | 37 | 343 | 4.3 | 7.8 | 0.00 | 0.00 | 0.00 | 59 | 1015.5 |
| 20260502123046 | 37 | 322 | 1.7 | 3.5 | 0.00 | 0.00 | 0.00 | 59 | 1015.3 |
| 20260502122543 | 37 | 291 | 4.3 | 7.0 | 0.00 | 0.00 | 0.00 | 58 | 1015.4 |
| 20260502122040 | 38 | 275 | 7.0 | 12.2 | 0.00 | 0.00 | 0.00 | 57 | 1015.5 |
| 20260502121537 | 38 | 298 | 11.3 | 13.9 | 0.00 | 0.00 | 0.00 | 55 | 1015.1 |
| 20260502121035 | 37 | 291 | 9.6 | 13.9 | 0.00 | 0.00 | 0.00 | 57 | 1015.3 |
| 20260502120531 | 38 | 308 | 7.8 | 13.0 | 0.00 | 0.00 | 0.00 | 57 | 1015.2 |
| 20260502115526 | 38 | 299 | 11.3 | 13.0 | 0.00 | 0.00 | 0.00 | 57 | 1015.4 |
| 20260502115022 | 38 | 273 | 7.0 | 11.3 | 0.00 | 0.00 | 0.00 | 57 | 1015.4 |
| 20260502114519 | 38 | 268 | 8.7 | 13.0 | 0.00 | 0.00 | 0.00 | 56 | 1015.4 |
| 20260502114015 | 38 | 283 | 9.6 | 13.9 | 0.00 | 0.00 | 0.00 | 56 | 1015.6 |
| 20260502113513 | 37 | 275 | 10.4 | 12.2 | 0.00 | 0.00 | 0.00 | 58 | 1015.5 |
| 20260502113011 | 38 | 305 | 7.0 | 9.6 | 0.00 | 0.00 | 0.00 | 58 | 1015.4 |
| 20260502112509 | 38 | 292 | 5.2 | 7.8 | 0.00 | 0.00 | 0.00 | 57 | 1015.6 |
| 20260502112006 | 38 | 329 | 7.8 | 8.7 | 0.00 | 0.00 | 0.00 | 56 | 1015.6 |
| 20260502111504 | 39 | 345 | 5.2 | 8.7 | 0.00 | 0.00 | 0.00 | 56 | 1015.5 |
| 20260502111001 | 39 | 283 | 9.6 | 13.0 | 0.00 | 0.00 | 0.00 | 54 | 1015.5 |
| 20260502110458 | 37 | 298 | 9.6 | 13.0 | 0.00 | 0.00 | 0.00 | 58 | 1015.6 |
| 20260502105955 | 38 | 330 | 4.3 | 6.1 | 0.00 | 0.00 | 0.00 | 59 | 1015.8 |
| 20260502105453 | 39 | 284 | 8.7 | 13.0 | 0.00 | 0.00 | 0.00 | 55 | 1015.6 |
| 20260502104950 | 39 | 294 | 10.4 | 12.2 | 0.00 | 0.00 | 0.00 | 54 | 1015.6 |
| 20260502104447 | 39 | 294 | 9.6 | 12.2 | 0.00 | 0.00 | 0.00 | 56 | 1015.9 |
| 20260502103945 | 40 | 293 | 10.4 | 13.9 | 0.00 | 0.00 | 0.00 | 54 | 1016.1 |
| 20260502103442 | 39 | 289 | 11.3 | 13.0 | 0.00 | 0.00 | 0.00 | 57 | 1015.8 |
| 20260502102939 | 39 | 286 | 11.3 | 13.9 | 0.00 | 0.00 | 0.00 | 56 | 1015.5 |
| 20260502102436 | 38 | 284 | 9.6 | 12.2 | 0.00 | 0.00 | 0.00 | 58 | 1015.6 |
| 20260502101933 | 40 | 265 | 12.2 | 13.9 | 0.00 | 0.00 | 0.00 | 55 | 1015.6 |
| 20260502101431 | 40 | 293 | 12.2 | 14.8 | 0.00 | 0.00 | 0.00 | 55 | 1015.6 |
| 20260502100929 | 40 | 314 | 11.3 | 13.9 | 0.00 | 0.00 | 0.00 | 55 | 1015.5 |
| 20260502100428 | 39 | 311 | 10.4 | 13.0 | 0.00 | 0.00 | 0.00 | 57 | 1015.6 |
| 20260502091402 | 37 | 286 | 7.0 | 7.8 | 0.00 | 0.00 | 0.00 | 67 | 1015.8 |
| 20260502090859 | 37 | 262 | 5.2 | 7.0 | 0.00 | 0.00 | 0.00 | 67 | 1015.5 |
| 20260502090355 | 37 | 288 | 5.2 | 8.7 | 0.00 | 0.00 | 0.00 | 67 | 1015.9 |
| 20260502071250 | 40 | 329 | 3.5 | 7.0 | 0.00 | 0.00 | 0.00 | 61 | 1016.1 |
| 20260502070748 | 40 | 331 | 1.7 | 7.0 | 0.00 | 0.00 | 0.00 | 62 | 1016.1 |
| 20260502070245 | 40 | 314 | 4.3 | 9.6 | 0.00 | 0.00 | 0.00 | 61 | 1016.3 |
| 20260502065744 | 41 | 285 | 5.2 | 6.1 | 0.00 | 0.00 | 0.00 | 60 | 1016.3 |
| 20260502065242 | 41 | 315 | 2.6 | 3.5 | 0.00 | 0.00 | 0.00 | 57 | 1016.3 |
| 20260502064740 | 41 | 301 | 3.5 | 6.1 | 0.00 | 0.00 | 0.00 | 58 | 1016.2 |
| 20260502064238 | 42 | 302 | 3.5 | 5.2 | 0.00 | 0.00 | 0.00 | 57 | 1016.0 |
| 20260502063735 | 42 | 338 | 3.5 | 6.1 | 0.00 | 0.00 | 0.00 | 58 | 1016.0 |
| 20260502063233 | 41 | 332 | 3.5 | 8.7 | 0.00 | 0.00 | 0.00 | 58 | 1016.3 |
| 20260502062730 | 41 | 294 | 7.8 | 8.7 | 0.00 | 0.00 | 0.00 | 59 | 1016.3 |
| 20260502062227 | 43 | 276 | 7.0 | 7.8 | 0.00 | 0.00 | 0.00 | 51 | 1016.3 |
| 20260502061726 | 41 | 295 | 7.0 | 7.8 | 0.00 | 0.00 | 0.00 | 51 | 1016.1 |
| 20260502061223 | 43 | 307 | 4.3 | 5.2 | 0.00 | 0.00 | 0.00 | 51 | 1016.0 |
| 20260502060719 | 44 | 271 | 2.6 | 3.5 | 0.00 | 0.00 | 0.00 | 46 | 1016.2 |
| 20260502060215 | 44 | 281 | 2.6 | 3.5 | 0.00 | 0.00 | 0.00 | 47 | 1016.3 |
| 20260502055713 | 47 | 300 | 2.6 | 3.5 | 0.00 | 0.00 | 0.00 | 49 | 1016.1 |
| 20260502055210 | 48 | 284 | 0.9 | 1.7 | 0.00 | 0.00 | 0.00 | 63 | 1016.2 |
| 20260502054709 | 47 | 312 | 0.0 | 0.9 | 0.00 | 0.00 | 0.00 | 63 | 1016.2 |
| 20260502054206 | 47 | 321 | 0.0 | 0.9 | 0.00 | 0.00 | 0.00 | 61 | 1016.1 |
| 20260502053704 | 48 | 335 | 0.9 | 0.9 | 0.00 | 0.00 | 0.00 | 61 | 1016.1 |
| 20260502053201 | 48 | 332 | 0.0 | 0.0 | 0.00 | 0.00 | 0.00 | 57 | 1016.0 |
| 20260502052659 | 48 | 329 | 0.0 | 0.0 | 0.00 | 0.00 | 0.00 | 56 | 1016.1 |
| 20260502052157 | 48 | 349 | 0.9 | 1.7 | 0.00 | 0.00 | 0.00 | 53 | 1016.0 |
| 20260502051655 | 49 | 342 | 0.0 | 0.0 | 0.00 | 0.00 | 0.00 | 34 | 1016.1 |
| 20260502051152 | 49 | 320 | 0.0 | 0.0 | 0.00 | 0.00 | 0.00 | 34 | 1016.1 |
| 20260502050642 | 49 | 351 | 0.0 | 0.0 | 0.00 | 0.00 | 0.00 | 34 | 1016.0 |
| 20260502050139 | 50 | 345 | 0.0 | 0.0 | 0.00 | 0.00 | 0.00 | 33 | 1016.1 |
| 20260502045636 | 49 | 312 | 0.0 | 0.0 | 0.00 | 0.00 | 0.00 | 33 | 1016.0 |
| 20260502045134 | 49 | 287 | 0.0 | 0.9 | 0.00 | 0.00 | 0.00 | 34 | 1016.1 |
| 20260502044630 | 51 | 243 | 2.6 | 5.2 | 0.00 | 0.00 | 0.00 | 36 | 1016.1 |
| 20260502044126 | 52 | 357 | 0.0 | 1.7 | 0.00 | 0.00 | 0.00 | 30 | 1016.0 |
| 20260502043624 | 52 | 194 | 0.9 | 1.7 | 0.00 | 0.00 | 0.00 | 30 | 1016.1 |
| 20260502043120 | 52 | 172 | 1.7 | 1.7 | 0.00 | 0.00 | 0.00 | 30 | 1016.2 |
| 20260502042615 | 51 | 222 | 0.9 | 1.7 | 0.00 | 0.00 | 0.00 | 31 | 1016.1 |
| 20260502042112 | 51 | 216 | 1.7 | 2.6 | 0.00 | 0.00 | 0.00 | 31 | 1016.2 |
| 20260502041610 | 51 | 221 | 0.9 | 2.6 | 0.00 | 0.00 | 0.00 | 31 | 1016.2 |
| 20260502041107 | 50 | 236 | 2.6 | 2.6 | 0.00 | 0.00 | 0.00 | 35 | 1016.2 |
| 20260502040604 | 51 | 239 | 4.3 | 5.2 | 0.00 | 0.00 | 0.00 | 35 | 1016.2 |
| 20260502035556 | 53 | 4 | 1.7 | 1.7 | 0.00 | 0.00 | 0.00 | 29 | 1015.9 |
| 20260502035054 | 53 | 88 | 1.7 | 1.7 | 0.00 | 0.00 | 0.00 | 30 | 1015.9 |
| 20260502034552 | 52 | 34 | 0.9 | 1.7 | 0.00 | 0.00 | 0.00 | 30 | 1015.6 |
| 20260502034050 | 52 | 335 | 0.0 | 0.0 | 0.00 | 0.00 | 0.00 | 30 | 1016.1 |
| 20260502033548 | 52 | 356 | 0.0 | 0.0 | 0.00 | 0.00 | 0.00 | 31 | 1015.6 |
| 20260502033045 | 52 | 85 | 0.9 | 1.7 | 0.00 | 0.00 | 0.00 | 31 | 1015.6 |
| 20260502032541 | 52 | 67 | 2.6 | 3.5 | 0.00 | 0.00 | 0.00 | 29 | 1015.6 |
| 20260502032038 | 53 | 65 | 4.3 | 6.1 | 0.00 | 0.00 | 0.00 | 28 | 1015.4 |
| 20260502031536 | 53 | 88 | 4.3 | 5.2 | 0.00 | 0.00 | 0.00 | 29 | 1015.4 |
| 20260502031033 | 52 | 104 | 2.6 | 2.6 | 0.00 | 0.00 | 0.00 | 30 | 1015.5 |
| 20260502030532 | 53 | 95 | 2.6 | 3.5 | 0.00 | 0.00 | 0.00 | 30 | 1015.4 |
| 20260502030029 | 53 | 84 | 1.7 | 2.6 | 0.00 | 0.00 | 0.00 | 30 | 1015.3 |
| 20260502025526 | 53 | 80 | 1.7 | 2.6 | 0.00 | 0.00 | 0.00 | 30 | 1015.4 |
| 20260502025025 | 54 | 127 | 1.7 | 3.5 | 0.00 | 0.00 | 0.00 | 30 | 1015.4 |
| 20260502024521 | 55 | 111 | 1.7 | 2.6 | 0.00 | 0.00 | 0.00 | 29 | 1014.9 |
| 20260502024020 | 55 | 117 | 2.6 | 3.5 | 0.00 | 0.00 | 0.00 | 28 | 1015.2 |
| 20260502023517 | 56 | 351 | 0.9 | 1.7 | 0.00 | 0.00 | 0.00 | 28 | 1015.1 |
| 20260502023014 | 56 | 45 | 0.9 | 1.7 | 0.00 | 0.00 | 0.00 | 28 | 1015.1 |
| 20260502022511 | 56 | 72 | 1.7 | 1.7 | 0.00 | 0.00 | 0.00 | 28 | 1014.8 |
| 20260502022009 | 57 | 19 | 0.9 | 0.9 | 0.00 | 0.00 | 0.00 | 27 | 1014.8 |
| 20260502021506 | 57 | 98 | 0.9 | 1.7 | 0.00 | 0.00 | 0.00 | 26 | 1015.1 |
| 20260502021003 | 57 | 106 | 1.7 | 1.7 | 0.00 | 0.00 | 0.00 | 26 | 1014.7 |
| 20260502020500 | 58 | 52 | 0.9 | 1.7 | 0.00 | 0.00 | 0.00 | 25 | 1014.7 |
| 20260502015957 | 58 | 139 | 0.9 | 1.7 | 0.00 | 0.00 | 0.00 | 25 | 1014.8 |
| 20260502015455 | 58 | 225 | 1.7 | 1.7 | 0.00 | 0.00 | 0.00 | 25 | 1014.7 |
| 20260502014951 | 59 | 138 | 1.7 | 2.6 | 0.00 | 0.00 | 0.00 | 25 | 1014.5 |
| 20260502014448 | 59 | 128 | 1.7 | 3.5 | 0.00 | 0.00 | 0.00 | 24 | 1014.7 |
| 20260502013944 | 59 | 154 | 1.7 | 2.6 | 0.00 | 0.00 | 0.00 | 25 | 1014.6 |
| 20260502013440 | 59 | 159 | 1.7 | 2.6 | 0.00 | 0.00 | 0.00 | 25 | 1014.5 |
| 20260502012937 | 59 | 75 | 2.6 | 5.2 | 0.00 | 0.00 | 0.00 | 24 | 1014.5 |
| 20260502012435 | 59 | 147 | 2.6 | 3.5 | 0.00 | 0.00 | 0.00 | 24 | 1014.3 |
| 20260502011932 | 60 | 78 | 4.3 | 6.1 | 0.00 | 0.00 | 0.00 | 24 | 1014.5 |
| 20260502011428 | 60 | 120 | 3.5 | 5.2 | 0.00 | 0.00 | 0.00 | 23 | 1014.1 |
| 20260502010925 | 60 | 126 | 1.7 | 5.2 | 0.00 | 0.00 | 0.00 | 23 | 1014.5 |
| 20260502010421 | 60 | 117 | 3.5 | 3.5 | 0.00 | 0.00 | 0.00 | 22 | 1014.5 |
| 20260502005918 | 60 | 50 | 3.5 | 5.2 | 0.00 | 0.00 | 0.00 | 21 | 1014.3 |
| 20260502005416 | 61 | 144 | 3.5 | 5.2 | 0.00 | 0.00 | 0.00 | 22 | 1014.3 |
| 20260502004914 | 61 | 128 | 4.3 | 6.1 | 0.00 | 0.00 | 0.00 | 22 | 1014.5 |
| 20260502004409 | 62 | 77 | 4.3 | 7.0 | 0.00 | 0.00 | 0.00 | 22 | 1014.5 |
| 20260502003906 | 62 | 155 | 1.7 | 2.6 | 0.00 | 0.00 | 0.00 | 22 | 1014.5 |
| 20260502003403 | 61 | 357 | 3.5 | 3.5 | 0.00 | 0.00 | 0.00 | 21 | 1014.5 |
| 20260502002854 | 62 | 10 | 0.9 | 2.6 | 0.00 | 0.00 | 0.00 | 22 | 1014.3 |
| 20260502002352 | 62 | 205 | 0.0 | 2.6 | 0.00 | 0.00 | 0.00 | 22 | 1014.1 |
| 20260502001849 | 61 | 111 | 1.7 | 6.1 | 0.00 | 0.00 | 0.00 | 22 | 1014.3 |
| 20260502001346 | 61 | 86 | 7.0 | 9.6 | 0.00 | 0.00 | 0.00 | 21 | 1014.5 |
| 20260502000844 | 61 | 143 | 6.1 | 7.8 | 0.00 | 0.00 | 0.00 | 22 | 1014.3 |
| 20260502000342 | 61 | 76 | 3.5 | 9.6 | 0.00 | 0.00 | 0.00 | 23 | 1014.5 |
| 20260501235838 | 62 | 49 | 5.2 | 11.3 | 0.00 | 0.00 | 0.00 | 23 | 1014.6 |
| 20260501235334 | 63 | 355 | 1.7 | 2.6 | 0.00 | 0.00 | 0.00 | 21 | 1014.6 |
| 20260501234829 | 64 | 8 | 0.9 | 1.7 | 0.00 | 0.00 | 0.00 | 19 | 1014.3 |
| 20260501234326 | 62 | 316 | 0.9 | 2.6 | 0.00 | 0.00 | 0.00 | 22 | 1014.3 |
| 20260501233825 | 61 | 12 | 0.9 | 5.2 | 0.00 | 0.00 | 0.00 | 22 | 1014.5 |
| 20260501233322 | 62 | 11 | 3.5 | 7.0 | 0.00 | 0.00 | 0.00 | 20 | 1014.5 |
| 20260501232817 | 61 | 61 | 2.6 | 3.5 | 0.00 | 0.00 | 0.00 | 23 | 1014.2 |
| 20260501232315 | 62 | 247 | 0.9 | 5.2 | 0.00 | 0.00 | 0.00 | 22 | 1014.6 |
| 20260501231812 | 61 | 6 | 3.5 | 7.8 | 0.00 | 0.00 | 0.00 | 22 | 1014.6 |
| 20260501231310 | 63 | 333 | 0.9 | 1.7 | 0.00 | 0.00 | 0.00 | 21 | 1014.6 |
| 20260501230808 | 63 | 309 | 0.0 | 1.7 | 0.00 | 0.00 | 0.00 | 22 | 1014.5 |
| 20260501230307 | 61 | 253 | 2.6 | 3.5 | 0.00 | 0.00 | 0.00 | 21 | 1014.5 |
| 20260501225804 | 61 | 34 | 4.3 | 6.1 | 0.00 | 0.00 | 0.00 | 22 | 1014.3 |
| 20260501225305 | 61 | 12 | 3.5 | 8.7 | 0.00 | 0.00 | 0.00 | 21 | 1014.5 |
| 20260501224757 | 61 | 11 | 3.5 | 7.8 | 0.00 | 0.00 | 0.00 | 24 | 1014.3 |
| 20260501224255 | 62 | 344 | 0.9 | 2.6 | 0.00 | 0.00 | 0.00 | 22 | 1014.5 |
| 20260501223751 | 63 | 307 | 0.0 | 2.6 | 0.00 | 0.00 | 0.00 | 21 | 1014.6 |
| 20260501223247 | 61 | 3 | 3.5 | 5.2 | 0.00 | 0.00 | 0.00 | 23 | 1014.7 |
| 20260501222743 | 61 | 357 | 5.2 | 7.0 | 0.00 | 0.00 | 0.00 | 21 | 1014.7 |
| 20260501222241 | 62 | 25 | 7.8 | 9.6 | 0.00 | 0.00 | 0.00 | 22 | 1014.8 |
| 20260501221738 | 64 | 71 | 3.5 | 8.7 | 0.00 | 0.00 | 0.00 | 23 | 1014.8 |
| 20260501221235 | 64 | 3 | 0.9 | 1.7 | 0.00 | 0.00 | 0.00 | 21 | 1014.8 |
| 20260501220732 | 62 | 315 | 0.9 | 1.7 | 0.00 | 0.00 | 0.00 | 23 | 1014.8 |
| 20260501220229 | 61 | 354 | 3.5 | 3.5 | 0.00 | 0.00 | 0.00 | 23 | 1014.9 |
| 20260501215726 | 61 | 28 | 7.0 | 8.7 | 0.00 | 0.00 | 0.00 | 24 | 1014.9 |
| 20260501215222 | 61 | 348 | 0.0 | 2.6 | 0.00 | 0.00 | 0.00 | 23 | 1014.9 |
| 20260501214717 | 60 | 22 | 2.6 | 3.5 | 0.00 | 0.00 | 0.00 | 23 | 1014.9 |
| 20260501214213 | 60 | 352 | 1.7 | 7.0 | 0.00 | 0.00 | 0.00 | 23 | 1015.1 |
| 20260501213710 | 61 | 10 | 5.2 | 7.8 | 0.00 | 0.00 | 0.00 | 22 | 1015.1 |
| 20260501213206 | 61 | 326 | 0.0 | 1.7 | 0.00 | 0.00 | 0.00 | 23 | 1015.3 |
| 20260501212702 | 61 | 38 | 3.5 | 6.1 | 0.00 | 0.00 | 0.00 | 23 | 1015.1 |
| 20260501212159 | 61 | 318 | 1.7 | 3.5 | 0.00 | 0.00 | 0.00 | 24 | 1015.2 |
| 20260501211655 | 62 | 21 | 2.6 | 3.5 | 0.00 | 0.00 | 0.00 | 22 | 1015.3 |
| 20260501211153 | 62 | 228 | 0.0 | 2.6 | 0.00 | 0.00 | 0.00 | 22 | 1015.5 |
| 20260501210650 | 61 | 287 | 0.9 | 7.8 | 0.00 | 0.00 | 0.00 | 24 | 1015.3 |
| 20260501210147 | 60 | 340 | 4.3 | 7.8 | 0.00 | 0.00 | 0.00 | 24 | 1015.5 |
| 20260501205643 | 61 | 297 | 5.2 | 8.7 | 0.00 | 0.00 | 0.00 | 24 | 1015.5 |
| 20260501205141 | 62 | 320 | 4.3 | 7.0 | 0.00 | 0.00 | 0.00 | 24 | 1015.5 |
| 20260501204637 | 62 | 2 | 1.7 | 3.5 | 0.00 | 0.00 | 0.00 | 23 | 1015.4 |
| 20260501204133 | 61 | 224 | 0.0 | 2.6 | 0.00 | 0.00 | 0.00 | 24 | 1015.4 |
| 20260501203629 | 62 | 177 | 3.5 | 6.1 | 0.00 | 0.00 | 0.00 | 23 | 1015.8 |
| 20260501203127 | 60 | 229 | 6.1 | 7.8 | 0.00 | 0.00 | 0.00 | 24 | 1015.8 |
| 20260501202624 | 60 | 326 | 1.7 | 5.2 | 0.00 | 0.00 | 0.00 | 24 | 1015.4 |
| 20260501202120 | 61 | 309 | 3.5 | 7.0 | 0.00 | 0.00 | 0.00 | 24 | 1015.6 |
| 20260501201618 | 60 | 353 | 1.7 | 6.1 | 0.00 | 0.00 | 0.00 | 25 | 1015.9 |
| 20260501201114 | 61 | 260 | 1.7 | 3.5 | 0.00 | 0.00 | 0.00 | 25 | 1015.9 |
| 20260501200611 | 62 | 342 | 0.9 | 3.5 | 0.00 | 0.00 | 0.00 | 24 | 1015.6 |
| 20260501200109 | 61 | 22 | 0.9 | 1.7 | 0.00 | 0.00 | 0.00 | 25 | 1015.9 |
| 20260501195606 | 61 | 288 | 1.7 | 2.6 | 0.00 | 0.00 | 0.00 | 24 | 1016.0 |
| 20260501195101 | 60 | 310 | 1.7 | 3.5 | 0.00 | 0.00 | 0.00 | 26 | 1015.8 |
| 20260501194556 | 59 | 286 | 0.9 | 2.6 | 0.00 | 0.00 | 0.00 | 25 | 1015.9 |
| 20260501194052 | 59 | 277 | 1.7 | 6.1 | 0.00 | 0.00 | 0.00 | 26 | 1015.9 |
| 20260501193550 | 58 | 306 | 2.6 | 5.2 | 0.00 | 0.00 | 0.00 | 26 | 1015.8 |
| 20260501193049 | 59 | 302 | 3.5 | 6.1 | 0.00 | 0.00 | 0.00 | 27 | 1015.8 |
| 20260501192545 | 59 | 353 | 3.5 | 7.0 | 0.00 | 0.00 | 0.00 | 27 | 1015.9 |
| 20260501192043 | 58 | 42 | 5.2 | 7.0 | 0.00 | 0.00 | 0.00 | 28 | 1016.0 |
| 20260501191540 | 59 | 20 | 3.5 | 7.8 | 0.00 | 0.00 | 0.00 | 26 | 1015.9 |
| 20260501191037 | 61 | 171 | 3.5 | 5.2 | 0.00 | 0.00 | 0.00 | 26 | 1015.9 |
| 20260501190532 | 59 | 315 | 0.9 | 2.6 | 0.00 | 0.00 | 0.00 | 27 | 1016.1 |
| 20260501190028 | 59 | 345 | 0.0 | 0.9 | 0.00 | 0.00 | 0.00 | 25 | 1015.9 |
| 20260501185525 | 58 | 320 | 4.3 | 5.2 | 0.00 | 0.00 | 0.00 | 26 | 1016.0 |
| 20260501185021 | 57 | 18 | 2.6 | 3.5 | 0.00 | 0.00 | 0.00 | 29 | 1016.1 |
| 20260501184518 | 59 | 34 | 3.5 | 5.2 | 0.00 | 0.00 | 0.00 | 25 | 1015.9 |
| 20260501184017 | 59 | 321 | 0.0 | 2.6 | 0.00 | 0.00 | 0.00 | 27 | 1015.9 |
| 20260501183515 | 59 | 290 | 3.5 | 7.0 | 0.00 | 0.00 | 0.00 | 27 | 1016.3 |
| 20260501183011 | 58 | 343 | 3.5 | 6.1 | 0.00 | 0.00 | 0.00 | 26 | 1016.2 |
| 20260501182508 | 57 | 284 | 2.6 | 6.1 | 0.00 | 0.00 | 0.00 | 28 | 1016.2 |
| 20260501182005 | 57 | 14 | 2.6 | 3.5 | 0.00 | 0.00 | 0.00 | 26 | 1016.2 |
| 20260501181502 | 57 | 303 | 0.9 | 5.2 | 0.00 | 0.00 | 0.00 | 27 | 1016.2 |
| 20260501180959 | 57 | 308 | 1.7 | 6.1 | 0.00 | 0.00 | 0.00 | 26 | 1016.2 |
| 20260501180456 | 57 | 30 | 3.5 | 5.2 | 0.00 | 0.00 | 0.00 | 28 | 1016.2 |
| 20260501175952 | 55 | 27 | 1.7 | 3.5 | 0.00 | 0.00 | 0.00 | 29 | 1016.1 |
| 20260501175449 | 56 | 14 | 3.5 | 7.0 | 0.00 | 0.00 | 0.00 | 29 | 1016.5 |
| 20260501174946 | 57 | 347 | 6.1 | 7.0 | 0.00 | 0.00 | 0.00 | 28 | 1016.2 |
| 20260501174444 | 54 | 227 | 0.0 | 7.0 | 0.00 | 0.00 | 0.00 | 30 | 1016.3 |
| 20260501173941 | 54 | 272 | 4.3 | 7.0 | 0.00 | 0.00 | 0.00 | 29 | 1016.5 |
| 20260501173439 | 56 | 332 | 1.7 | 6.1 | 0.00 | 0.00 | 0.00 | 29 | 1016.5 |
| 20260501172934 | 56 | 347 | 2.6 | 7.0 | 0.00 | 0.00 | 0.00 | 29 | 1016.5 |
| 20260501172430 | 55 | 307 | 0.9 | 1.7 | 0.00 | 0.00 | 0.00 | 29 | 1016.5 |
| 20260501171925 | 55 | 236 | 0.0 | 6.1 | 0.00 | 0.00 | 0.00 | 29 | 1016.6 |
| 20260501171422 | 55 | 266 | 1.7 | 2.6 | 0.00 | 0.00 | 0.00 | 30 | 1016.5 |
| 20260501170918 | 54 | 272 | 7.0 | 8.7 | 0.00 | 0.00 | 0.00 | 30 | 1016.6 |
| 20260501170415 | 54 | 213 | 3.5 | 3.5 | 0.00 | 0.00 | 0.00 | 31 | 1016.6 |
| 20260501165913 | 55 | 246 | 6.1 | 9.6 | 0.00 | 0.00 | 0.00 | 30 | 1016.5 |
| 20260501165411 | 54 | 17 | 0.0 | 8.7 | 0.00 | 0.00 | 0.00 | 30 | 1016.5 |
| 20260501164908 | 54 | 277 | 0.0 | 0.9 | 0.00 | 0.00 | 0.00 | 30 | 1016.3 |
| 20260501164406 | 56 | 260 | 3.5 | 5.2 | 0.00 | 0.00 | 0.00 | 30 | 1016.5 |
| 20260501163902 | 55 | 123 | 0.9 | 0.9 | 0.00 | 0.00 | 0.00 | 32 | 1016.3 |
| 20260501163358 | 53 | 334 | 2.6 | 7.0 | 0.00 | 0.00 | 0.00 | 30 | 1016.6 |
| 20260501162855 | 53 | 273 | 1.7 | 7.0 | 0.00 | 0.00 | 0.00 | 31 | 1016.3 |
| 20260501162352 | 54 | 212 | 1.7 | 5.2 | 0.00 | 0.00 | 0.00 | 32 | 1016.5 |
| 20260501161849 | 54 | 195 | 3.5 | 6.1 | 0.00 | 0.00 | 0.00 | 33 | 1016.3 |
| 20260501161346 | 54 | 192 | 3.5 | 5.2 | 0.00 | 0.00 | 0.00 | 33 | 1016.3 |
| 20260501160842 | 52 | 250 | 5.2 | 7.0 | 0.00 | 0.00 | 0.00 | 35 | 1016.5 |
| 20260501160339 | 52 | 267 | 7.8 | 8.7 | 0.00 | 0.00 | 0.00 | 34 | 1016.3 |
| 20260501155837 | 51 | 264 | 9.6 | 11.3 | 0.00 | 0.00 | 0.00 | 37 | 1016.5 |
| 20260501155333 | 51 | 291 | 10.4 | 13.9 | 0.00 | 0.00 | 0.00 | 38 | 1016.7 |
| 20260501154830 | 51 | 299 | 11.3 | 13.0 | 0.00 | 0.00 | 0.00 | 38 | 1016.6 |
| 20260501154327 | 51 | 272 | 9.6 | 12.2 | 0.00 | 0.00 | 0.00 | 37 | 1016.6 |
| 20260501153825 | 50 | 270 | 8.7 | 13.0 | 0.00 | 0.00 | 0.00 | 39 | 1016.8 |
| 20260501153322 | 49 | 276 | 7.0 | 11.3 | 0.00 | 0.00 | 0.00 | 41 | 1016.5 |
| 20260501152818 | 49 | 271 | 7.8 | 9.6 | 0.00 | 0.00 | 0.00 | 41 | 1016.7 |
| 20260501152316 | 48 | 258 | 6.1 | 11.3 | 0.00 | 0.00 | 0.00 | 43 | 1016.7 |